[keps] orb12187.2l.amsat

Ray Hoad ray.hoad at mypbmail.com
Thu Jul 5 19:55:02 PDT 2012


SB KEPS @ AMSAT  $ORB12187.N
2Line Orbital Elements 12187.AMSAT

HR AMSAT ORBITAL ELEMENTS FOR AMATEUR SATELLITES IN NASA FORMAT
FROM WA5QGD FORT WORTH,TX July 5, 2012
Send SUBSCRIBE KEPS/UNSUBSCRIBE KEPS to majordomo at amsat.org only
BID: ORB12187.N

DECODE 2-LINE ELSETS WITH THE FOLLOWING KEY:
1 AAAAAU 00  0  0 BBBBB.BBBBBBBB  .CCCCCCCC  00000-0  00000-0 0  DDDZ
2 AAAAA EEE.EEEE FFF.FFFF GGGGGGG HHH.HHHH III.IIII JJ.JJJJJJJJKKKKKZ
KEY: A-CATALOGNUM B-EPOCHTIME C-DECAY D-ELSETNUM E-INCLINATION F-RAAN
G-ECCENTRICITY H-ARGPERIGEE I-MNANOM J-MNMOTION K-ORBITNUM Z-CHECKSUM

TO ALL RADIO AMATEURS BT

AO-07
1 07530U 74089B   12186.62272335 -.00000027  00000-0  10000-3 0 04237
2 07530 101.4027 183.1602 0011553 248.9865 110.9971 12.53590036722238
FO-29
1 24278U 96046B   12186.34146136 -.00000038  00000-0 -80516-6 0 09241
2 24278 098.5872 284.7513 0350379 345.0507 014.0478 13.52984137784270
SO-33
1 25509U 98061B   12186.52736649  .00000160  00000-0  20401-4 0 02716
2 25509 031.4351 235.5598 0352598 354.9564 004.7560 14.28784261715137
RS-22
1 27939U 03042A   12186.76688135  .00000486  00000-0  10106-3 0 05064
2 27939 097.8107 026.6799 0012812 205.3580 154.6994 14.64056270468450
VO-52
1 28650U 05017B   12186.66518206  .00001375  00000-0  17443-3 0 01468
2 28650 097.5959 216.7647 0026036 346.7289 013.3230 14.83021109387566
HO-68
1 36122U 09072B   12186.77317736 -.00000044  00000-0  00000-0 0 06133
2 36122 100.3599 245.7646 0007885 070.5171 289.6785 13.16296558122709
UO-11
1 14781U 84021B   12186.82864432  .00000392  00000-0  58108-4 0 09216
2 14781 097.9532 246.1940 0008566 343.7431 016.3506 14.80480057522540
AO-16
1 20439U 90005D   12186.90419208  .00000041  00000-0  31015-4 0 05112
2 20439 098.4318 129.7827 0011742 104.0036 256.2453 14.32062456172536
LO-19
1 20442U 90005G   12186.92450594  .00000012  00000-0  19871-4 0 04529
2 20442 098.3948 132.7457 0012802 097.0085 263.2555 14.32280454172726
AO-27
1 22825U 93061C   12186.88491635  .00000090  00000-0  52270-4 0 01429
2 22825 098.5719 129.4244 0007706 222.1841 137.8745 14.29468615979002
IO-26
1 22826U 93061D   12186.88240179  .00000048  00000-0  35807-4 0 08994
2 22826 098.5702 129.7875 0008098 219.2047 140.8547 14.29742949979131
GO-32
1 25397U 98043D   12186.55088053  .00000015  00000-0  24582-4 0 08183
2 25397 098.3615 164.4052 0000635 176.0599 184.0557 14.23280979726496
NO-44
1 26931U 01043C   12186.94835454 -.00000130  00000-0 -18157-4 0 00835
2 26931 067.0532 074.5671 0007528 259.6333 100.3895 14.29808168561789
SO-50
1 27607U 02058C   12186.62521029  .00000477  00000-0  92904-4 0 08043
2 27607 064.5577 241.8525 0082092 245.1657 114.0890 14.72418476512539
CO-55
1 27844U 03031E   12186.52447700  .00000142  00000-0  85447-4 0 04128
2 27844 098.7033 194.6511 0009601 167.3572 192.7854 14.21036895467351
CO-57
1 27848U 03031J   12186.53116025  .00000127  00000-0  79220-4 0 03614
2 27848 098.7111 193.9987 0009523 171.8864 188.2466 14.20787031467294
AO-51
1 28375U 04025K   12186.85644218  .00000159  00000-0  60328-4 0 03084
2 28375 098.1487 151.3105 0084300 348.1924 011.7240 14.40961201421310
CP3
1 31129U 07012N   12186.91740909  .00000897  00000-0  21261-3 0 02074
2 31129 097.8799 193.6475 0102347 068.3075 292.8993 14.53105598276556
CO-65
1 32785U 08021C   12186.65215156  .00000765  00000-0  10037-3 0 03542
2 32785 097.8010 247.2916 0014875 009.6907 350.4596 14.83027525226356
PRISM
1 33493U 09002B   12186.85954368  .00001622  00000-0  20148-3 0 08492
2 33493 098.1727 327.8448 0017551 237.8304 122.1226 14.83959950186374
SOHLA-1
1 33496U 09002E   12186.87056257  .00000227  00000-0  46162-4 0 07828
2 33496 098.1060 298.4896 0006550 354.4111 005.7019 14.69986906184847
SO-67
1 35870U 09049F   12186.91428362  .00003338  00000-0  14084-3 0 01076
2 35870 097.2317 222.0385 0003949 100.2308 016.6265 15.23946749155316
TISAT-1
1 36799U 10035E   12186.89548133  .00001142  00000-0  15052-3 0 01257
2 36799 098.0624 263.3601 0016363 113.5133 246.7806 14.82008801107117
STUDSAT
1 36801U 10035G   12186.93509160  .00003632  00000-0  43744-3 0 04262
2 36801 098.0704 264.1937 0014138 100.0395 260.2427 14.84451026107157
FO-69
1 37227U 0        12179.46825757  .00000166  00000-0  31335-4 0 02192
2 37227 071.9703 289.2712 0018108 298.3339 061.6016 14.77092260037611
FO-70
1 37380U 0        12179.47554455  .00000208  00000-0  37493-4 0 02230
2 37380 071.9743 289.8278 0018623 295.0880 064.8372 14.76843679037500
ALMASAT-1
1 38078U 12006B   12186.71763913  .00018145  00000-0  49783-3 0 03537
2 38078 069.4952 277.5416 0758070 226.8561 126.6737 14.09666395020027
XATCOBEO
1 38082U 12006F   12186.70033418  .00042947  00000-0  10362-2 0 03662
2 38082 069.4954 275.2952 0734174 225.6206 128.2508 14.17249619020070
NOAA-10
1 16969U 86073A   12186.96300388  .00000086  00000-0  52382-4 0 09909
2 16969 098.5794 215.6999 0012220 178.3807 181.7416 14.27561261342403
NOAA-11
1 19531U 88089A   12186.75213840 -.00000263  00000-0 -11346-3 0 09812
2 19531 098.7330 271.5421 0011251 169.8902 190.2505 14.14971099226993
NOAA-12
1 21263U 91032A   12186.94595213  .00000088  00000-0  56127-4 0 04823
2 21263 098.7277 208.5265 0014384 146.1640 214.0461 14.25504788099084
MET-3/5
1 21655U 91056A   12186.84948614 -.00000173  00000-0 -48033-3 0 04496
2 21655 082.5575 139.7117 0012087 278.8523 081.1230 13.17040253004213
MET-2/21
1 22782U 93055A   12186.65573256  .00000017  00000-0  20012-5 0 04634
2 22782 082.5457 018.6509 0024023 102.4062 257.9768 13.83684577951583
OKEAN-4
1 23317U 94066A   12186.96939426  .00000797  00000-0  93043-4 0 09397
2 23317 082.5387 014.5791 0019877 295.9650 063.9517 14.83829516957443
NOAA-14
1 23455U 94089A   12186.95066548 -.00000008  00000-0  19034-4 0 09653
2 23455 098.8257 270.2262 0008549 271.4042 088.6148 14.13906211903305
NOAA-15
1 25338U 98030A   12186.60951235  .00000117  00000-0  68585-4 0 03225
2 25338 098.6902 173.3528 0011512 061.1012 299.1310 14.25089302735337
RESURS
1 25394U 98043A   12186.96430655 -.00000029  00000-0  50395-5 0 01477
2 25394 098.3210 174.2661 0001209 142.5721 217.5543 14.24289755726930
FENGYUN1
1 25730U 99025A   12186.88860155  .00000737  00000-0  44467-3 0 06498
2 25730 098.8472 145.5625 0019197 317.6182 042.3504 14.09637100677100
OKEAN-0
1 25860U 99039A   12186.97553695  .00000282  00000-0  50114-4 0 06802
2 25860 097.9371 149.2552 0001022 103.1120 257.0202 14.74230415697191
NOAA-16
1 26536U 00055A   12186.60141215  .00000314  00000-0  19364-3 0 08083
2 26536 099.0929 228.9927 0011044 039.0476 321.1501 14.12755867607495
NOAA-17
1 27453U 02032A   12186.79405959  .00000133  00000-0  74889-4 0 07607
2 27453 098.3351 212.9415 0012831 104.4114 255.8465 14.24453318521262
NOAA-18
1 28654U 05018A   12186.78509328  .00000411  00000-0  25077-3 0 02408
2 28654 099.0463 145.0198 0015212 104.3976 255.8877 14.11670785367049
NOAA-19
1 33591U 09005A   12186.86776782  .00000015  00000-0  32710-4 0 04318
2 33591 098.8643 126.4375 0013924 335.4901 024.5573 14.11356274175501
HUBBLE
1 20580U 90037B   12185.92876857  .00001316  00000-0  84095-4 0 00298
2 20580 028.4714 033.9796 0003503 231.8311 128.2137 15.02589516017251
ISS
1 25544U 98067A   12186.88741898  .00009202  00000-0  13684-3 0 08673
2 25544 051.6402 033.9136 0007946 120.0314 075.7168 15.55917966780768
CO-58
1 28895U 05043F   12186.61994314  .00000500  00000-0  11157-3 0 02175
2 28895 097.9109 052.1247 0019188 096.8842 263.4570 14.60661880356207
FALCON
1 30776U 07006E   12186.34128358  .00002306  00000-0  15092-3 0 03869
2 30776 035.4303 172.0575 0001192 179.7711 180.3008 15.07659319292847
MAST
1 31126U 07012K   12186.97546447  .00000575  00000-0  13809-3 0 05006
2 31126 097.8735 197.0351 0094888 055.5812 305.4311 14.54184720276854
CAPE1
1 31130U 07012P   12186.54427652  .00000723  00000-0  17383-3 0 05084
2 31130 097.8823 193.0012 0102684 070.0254 291.1964 14.52969735276291
COMPASS
1 32787U 08021E   12186.66699409  .00001704  00000-0  21035-3 0 03467
2 32787 097.7987 247.6151 0015286 008.2676 351.8821 14.84072418226404
AAUSAT2
1 32788U 08021F   12186.70020925  .00001611  00000-0  19760-3 0 03395
2 32788 097.8025 248.0393 0015069 009.5843 350.5650 14.84399808226435
DO-64
1 32789U 08021G   12186.72986800  .00002755  00000-0  32140-3 0 03545
2 32789 097.8126 250.1567 0014442 005.2868 354.8505 14.85933700226486
CO-66
1 32791U 08021J   12186.66354976  .00001225  00000-0  15519-3 0 03377
2 32791 097.8003 247.3399 0015943 007.6553 352.4910 14.83475926226335
RS-30
1 32953U 08025A   12186.75576287  .00000010  00000-0  00000-0 0 09296
2 32953 082.5036 284.2138 0017467 269.0731 090.8348 12.43025234186743
TACSAT-3
1 35001U 09028A   12121.72616188  .15204951  73582-5  42606-3 0 00016
2 35001 040.4259 351.8840 0007146 275.2650 085.0693 16.45157000166990
PHARMSAT
1 35002U 09028B   12186.73174606  .00169294  16769-4  53745-3 0 09633
2 35002 040.4559 314.4810 0011347 010.8413 349.2653 15.90324729177114
METEOR-M
1 35865U 09049A   12186.88244664 -.00000034  00000-0  42046-5 0 05590
2 35865 098.6534 240.8755 0002884 020.0691 340.0599 14.21864846145111
RS-38
1 35869U 09049E   12186.83061684 -.00000012  00000-0  14355-4 0 05663
2 35869 098.6491 240.8177 0004877 011.7583 348.3707 14.22076416145128
JUGNU
1 37839U 11058B   12186.55449561  .00000619  00000-0  19019-3 0 01814
2 37839 019.9608 253.0128 0020313 053.9810 306.2457 14.12064271037703
SRMSAT
1 37841U 11058D   12186.49110119  .00000264  00000-0  00000-0 0 01806
2 37841 019.9706 258.6152 0012206 019.4821 340.6076 14.10147455037640
RAX-2
1 37853U 11061D   12186.96482553  .00002187  00000-0  18204-3 0 02231
2 37853 101.7117 235.2457 0246577 300.2428 057.4569 14.80144073037035
AUBIESAT
1 37854U 11061E   12186.84733159  .00002486  00000-0  20275-3 0 02222
2 37854 101.7138 235.3477 0246843 299.8176 057.8689 14.80538594037000
HRBE
1 37855U 11061F   12186.86273953  .00002179  00000-0  17937-3 0 02305
2 37855 101.7148 235.3203 0247558 299.9505 057.7309 14.80386981037009
RS-39
1 38051U 11062C   12186.81575648  .00005698  00000-0  24120-3 0 04848
2 38051 051.6428 075.8203 0014712 098.8497 305.5395 15.24555370024665
E-STAR
1 38079U 12006C   12186.62178177  .00034855  00000-0  84498-3 0 03246
2 38079 069.4917 275.8020 0741209 225.9949 127.7757 14.15683396020051
GOLIAT
1 38085U 12006J   12186.34262177  .00033210  00000-0  80357-3 0 02991
2 38085 069.4970 276.7597 0746195 226.6051 127.0445 14.14666221020006
HORYU-2
1 38340U 12025D   12186.25201215  .00000935  00000-0  16421-3 0 00472
2 38340 098.1748 126.0181 0011820 278.5388 081.4492 14.70012326006986
/EX




More information about the Keps mailing list